CAPE
0 770 1287 1629 1668 1646 1521 1370 1534 1671 1847 1947 1873 1759 1638 1558 1539 1466 1403 1280 1168 806 684 673 641 602 652 1092 1292 1280 1252 1109 917 832 504 387 460 324 202 626 528 301 210
59 934 1264 1600 1689 1623 1556 1442 1449 1635 1805 1858 1739 1649 1588 1567 1507 1446 1360 1286 1171 719 672 621 564 490 468 841 1049 1148 910 667 366 252 233 203 273 272 418 506 709 539 322
170 1040 1641 1472 1656 1637 1664 1573 1552 1669 1784 1744 1681 1627 1596 1569 1497 1365 1332 1275 1173 776 662 561 509 459 510 694 1089 856 295 101 60 7 6 9 27 95 453 859 727 578 424
397 1181 1672 1800 1580 1637 1592 1605 1596 1705 1668 1617 1645 1647 1596 1554 1448 1375 1380 1232 1237 882 542 338 464 475 439 637 915 346 185 132 53 13 0 0 3 77 181 494 584 577 491
582 1256 1513 1644 1473 1608 1601 1632 1629 1598 1598 1542 1521 1575 1593 1576 1499 1443 1326 1111 1289 709 763 404 322 148 512 777 499 195 192 140 11 0 0 0 3 8 10 15 83 223 281
674 1218 1347 1647 1452 1596 1661 1698 1734 1635 1492 1448 1416 1570 1638 1613 1654 1513 1310 1193 1183 695 427 208 41 100 498 384 199 171 199 99 0 0 0 0 1 9 7 12 24 38 50
696 1057 1416 1407 1424 1600 1708 1759 1647 1530 1440 1421 1477 1526 1617 1724 1788 1587 1475 1257 1039 606 173 14 198 368 162 165 181 187 152 7 0 0 0 1 5 13 9 3 4 16 27
949 1132 1335 1444 1396 1471 1543 1563 1347 1271 1270 1302 1420 1532 1716 1783 1692 1544 1129 803 562 370 29 1 283 82 34 106 139 96 8 0 0 0 0 0 13 5 6 1 0 0 6
919 1075 859 1651 1811 1388 1407 1345 1184 1118 1136 1309 1453 1528 1631 1486 1260 936 669 556 172 78 0 14 147 31 11 26 13 0 0 0 0 0 0 3 11 5 7 4 5 4 1
945 775 615 1024 1946 1766 1615 1187 1092 1020 1051 1301 1399 1376 1068 1148 1053 772 566 304 254 8 0 27 38 1 0 0 0 0 0 0 0 0 0 5 11 6 6 12 9 8 8
1005 843 700 971 1652 1431 1498 1363 1023 967 995 1240 1314 1296 897 1279 1145 739 514 327 148 2 0 13 4 0 0 0 0 0 0 0 0 0 0 14 8 10 10 8 10 8 0
985 887 781 747 1472 1618 1057 1345 1335 1222 1219 1327 1306 1299 1137 1081 981 845 397 204 65 0 0 1 3 1 0 0 0 0 0 0 0 0 1 15 7 9 10 8 0 0 0
1131 905 885 802 840 1618 908 1017 1169 1112 1222 1093 1136 1082 771 690 684 564 398 203 19 0 0 0 5 0 0 0 0 0 0 0 0 0 7 21 15 12 13 11 0 0 0
1298 1182 1086 981 937 944 1215 937 911 997 1012 950 1095 775 672 591 444 283 251 166 56 0 0 0 0 0 0 0 0 0 0 0 0 0 7 22 21 9 13 13 0 0 0
1221 1206 1138 1024 1078 1107 1098 981 893 804 881 723 724 618 620 453 195 69 121 158 77 0 0 0 0 0 0 0 0 0 0 0 0 0 10 23 24 14 11 12 0 0 0
1214 1047 1148 1147 1114 1136 1115 1076 870 873 811 600 412 570 418 313 150 145 152 179 84 2 0 0 0 0 0 0 0 0 0 0 0 0 5 15 32 25 14 15 0 0 0
1556 1383 1282 1308 1217 1187 1111 1096 946 952 784 484 247 526 398 347 373 257 164 170 63 0 0 0 0 0 0 0 0 0 0 0 0 0 1 9 7 16 17 2 0 0 0
509 1598 1431 1453 1494 1449 1487 1363 1193 815 501 307 204 479 420 498 481 236 184 141 55 2 0 0 0 0 0 0 0 0 0 0 0 0 0 7 15 0 0 0 0 0 0
0 926 1705 1516 1539 1506 1595 1621 1345 1145 939 631 417 375 302 439 518 239 216 212 86 0 0 0 0 0 0 0 0 0 0 0 0 0 0 0 0 0 0 0 0 0 0
375 1059 1742 1686 1629 1667 1748 1688 1609 1547 1196 838 753 635 512 403 493 274 275 195 228 23 0 0 0 0 0 0 0 0 0 0 0 0 0 0 0 0 0 0 0 0 0
0 119 682 1076 1292 1890 2115 1791 1410 1392 1370 1216 1133 968 688 656 489 370 314 361 197 205 8 0 0 0 0 0 0 0 0 0 0 0 0 0 0 0 0 0 0 0 0
0 0 0 4 239 1405 1275 1484 1701 1582 1484 1344 1460 1369 958 934 734 500 351 342 270 300 174 0 1 0 0 0 0 0 0 0 0 0 0 0 0 0 0 0 0 0 0
0 0 0 0 0 107 733 1262 1399 1474 1564 1249 1329 985 958 867 968 663 566 482 359 281 357 47 13 0 0 0 0 0 0 0 0 0 0 0 0 0 0 0 0 0 0
0 0 0 0 0 0 0 94 772 1104 980 1003 1032 913 938 1016 962 932 741 660 455 492 595 288 78 0 0 0 0 0 0 0 0 0 0 0 0 0 0 0 0 0 0
0 0 0 0 0 0 0 0 0 0 337 993 872 794 882 645 612 719 804 767 706 578 445 201 343 239 85 3 0 0 0 0 0 0 0 0 0 0 0 0 0 0 0
0 0 0 0 0 0 0 0 0 0 0 0 148 272 272 91 224 125 205 628 531 471 488 399 283 157 44 51 0 0 0 0 0 0 0 0 0 0 0 0 0 0 0
CIN
0 -596 -450 -313 -243 -222 -213 -202 -159 -111 -77 -58 -54 -55 -48 -41 -28 -24 -26 -35 -43 -89 -117 -116 -111 -120 -99 -16 -7 -1 -2 -1 -1 -6 -82 -142 -129 -177 -225 -65 -91 -167 -214
-157 -564 -462 -345 -273 -226 -199 -180 -149 -110 -83 -72 -71 -70 -51 -43 -38 -37 -42 -47 -58 -120 -120 -117 -131 -148 -134 -37 -15 -5 -8 -27 -122 -192 -195 -239 -223 -215 -150 -127 -82 -122 -186
-424 -545 -342 -361 -276 -239 -189 -165 -97 -77 -70 -77 -79 -65 -43 -40 -40 -53 -50 -58 -60 -104 -120 -121 -121 -134 -116 -61 -13 -24 -148 -287 -363 -425 -439 -397 -448 -348 -167 -69 -94 -129 -172
-386 -509 -362 -287 -319 -245 -194 -169 -117 -37 -55 -68 -66 -58 -44 -42 -48 -53 -49 -63 -51 -87 -141 -178 -130 -110 -118 -68 -26 -126 -204 -257 -360 -393 0 0 0 -359 -277 -161 -140 -139 -160
-672 -465 -382 -307 -322 -255 -202 -171 -137 -57 -49 -58 -57 -55 -41 -35 -34 -38 -48 -80 -47 -106 -90 -166 -179 -259 -95 -43 -95 -185 -207 -254 -444 0 0 0 0 0 0 -3 -383 -272 -232
-601 -425 -402 -309 -316 -260 -223 -188 -155 -123 -79 -64 -53 -45 -37 -24 -10 -19 -38 -62 -53 -108 -154 -229 -418 -307 -107 -130 -208 -202 -191 -275 -11 0 0 0 0 0 0 -3 -15 -473 -422
-535 -452 -359 -340 -320 -279 -226 -190 -183 -160 -127 -73 -35 -35 -28 -11 -3 -4 -11 -34 -72 -136 -287 -479 -236 -171 -231 -215 -207 -206 -217 -313 0 0 0 0 0 0 0 0 -1 0 -1
-470 -373 -297 -272 -275 -234 -216 -207 -255 -241 -201 -117 -43 -20 -5 -4 -2 -3 -30 -71 -154 -214 -459 -173 -181 -318 -409 -250 -222 -260 -420 0 0 0 0 0 0 0 0 0 0 0 -2
-451 -405 -421 -221 -167 -203 -214 -233 -261 -268 -226 -139 -56 -15 -5 -26 -33 -43 -99 -123 -286 -375 0 -266 -257 -420 -510 -407 -439 -88 0 0 0 0 0 0 0 0 0 0 0 0 0
-438 -434 -452 -351 -182 -174 -156 -226 -241 -246 -220 -161 -99 -52 -90 -53 -59 -99 -124 -187 -238 -472 0 -222 -381 0 0 0 0 0 0 0 0 0 0 0 0 0 0 0 0 0 0
-25 -24 -21 -344 -190 -208 -183 -178 -234 -248 -223 -170 -142 -110 -153 -36 -31 -99 -139 -207 -298 0 0 -244 -59 0 0 0 0 0 0 0 0 0 0 0 0 0 0 0 0 0 0
-48 -42 -38 -73 -234 -167 -241 -164 -138 -158 -147 -114 -106 -96 -105 -81 -65 -79 -179 -236 -341 0 0 -120 0 0 0 0 0 0 0 0 0 0 0 -1 0 0 0 0 0 0 0
-63 -68 -52 -49 -90 -171 -259 -228 -161 -158 -143 -144 -122 -123 -165 -147 -132 -150 -191 -253 -357 0 0 0 0 0 0 0 0 0 0 0 0 0 -1 -1 0 0 0 0 0 0 0
-74 -69 -65 -50 -49 -56 -227 -210 -220 -166 -163 -198 -155 -204 -204 -200 -226 -268 -258 -286 -342 0 0 0 0 0 0 0 0 0 0 0 0 0 -1 -2 0 0 0 0 0 0 0
-141 -100 -78 -61 -48 -58 -73 -70 -221 -209 -179 -207 -203 -217 -190 -219 -334 -407 -334 -292 -326 0 0 0 0 0 0 0 0 0 0 0 0 0 0 -4 -1 0 0 0 0 0 0
-270 -165 -87 -69 -64 -48 -50 -65 -69 -202 -185 -211 -247 -199 -220 -248 -315 -269 -296 -269 -313 -389 0 0 0 0 0 0 0 0 0 0 0 0 0 0 -4 0 0 0 0 0 0
-216 -235 -180 -107 -75 -51 -49 -39 -58 -215 -210 -264 -310 -203 -224 -217 -192 -194 -229 -230 -258 0 0 0 0 0 0 0 0 0 0 0 0 0 0 0 -3 -4 0 0 0 0 0
-420 -220 -241 -202 -150 -126 -79 -58 -60 -55 -43 -52 -310 -242 -221 -175 -130 -158 -146 -157 -250 -253 0 0 0 0 0 0 0 0 0 0 0 0 0 0 0 0 0 0 0 0 0
0 -325 -169 -181 -156 -117 -99 -64 -60 -58 -70 -64 -59 -246 -175 -194 -158 -121 -125 -88 -104 0 0 0 0 0 0 0 0 0 0 0 0 0 0 0 0 0 0 0 0 0 0
-390 -258 -131 -121 -96 -55 -57 -48 -74 -52 -63 -78 -69 -64 -48 -47 -162 -154 -66 -59 -89 -106 0 0 0 0 0 0 0 0 0 0 0 0 0 0 0 0 0 0 0 0 0
0 -408 -206 -141 -117 -36 -9 -22 -38 -60 -47 -47 -70 -68 -73 -63 -39 -60 -118 -46 -28 -7 -66 0 0 0 0 0 0 0 0 0 0 0 0 0 0 0 0 0 0 0 0
0 0 0 -364 -307 -67 -92 -60 -28 -21 -18 -34 -16 -30 -75 -83 -49 -38 -59 -92 -49 -2 -2 0 -6 0 0 0 0 0 0 0 0 0 0 0 0 0 0 0 0 0 0
0 0 0 0 0 -294 -75 -21 -18 -9 0 -4 -10 -38 -53 -61 -54 -56 -56 -65 -48 -18 0 -8 -33 0 0 0 0 0 0 0 0 0 0 0 0 0 0 0 0 0 0
0 0 0 0 0 0 -5 -232 -3 0 0 -1 -5 -12 -16 -28 -34 -45 -38 -17 -25 -16 0 0 -3 0 0 0 0 0 0 0 0 0 0 0 0 0 0 0 0 0 0
0 0 0 0 0 0 0 0 0 0 -44 -1 0 0 0 -11 -44 -18 -27 -23 0 0 0 -8 0 -1 -1 -6 0 0 0 0 0 0 0 0 0 0 0 0 0 0 0
0 0 0 0 0 0 0 0 0 0 0 0 -99 -43 -36 -61 0 -6 -31 -3 -8 0 0 0 0 0 -32 -4 -1 0 0 0 0 0 0 0 0 0 0 0 0 0 0
Wind_Speed
nan 30 35 33 33 34 37 40 34 30 29 27 28 28 29 31 30 23 20 20 20 22 23 24 24 25 25 23 23 25 26 25 23 19 18 17 16 11 10 9 3 11 14
nan 32 38 35 36 35 35 36 36 31 29 27 27 27 28 30 31 27 23 21 21 23 24 25 26 27 26 24 24 27 26 24 21 18 17 16 15 11 9 9 7 12 13
30 31 36 38 36 37 35 34 34 34 30 26 26 26 26 29 31 28 25 23 22 22 23 23 24 25 25 24 24 28 25 21 nan nan nan nan nan nan 13 16 14 11 15
39 35 37 42 41 39 37 34 32 34 32 27 25 25 26 27 30 29 26 24 24 23 22 22 23 24 23 22 25 24 19 19 nan nan nan nan nan nan 15 19 18 17 14
38 39 39 42 44 45 40 40 33 33 31 30 27 26 26 26 28 30 27 24 23 24 23 22 23 24 21 21 23 20 20 22 nan nan nan nan nan nan nan nan nan 21 20
40 38 41 41 40 41 44 41 37 32 31 29 26 27 26 27 28 29 28 26 25 23 24 24 nan 25 22 22 21 20 21 nan nan nan nan nan nan nan nan nan nan nan nan
31 32 39 37 37 41 41 38 36 30 32 29 27 26 26 26 26 27 28 28 26 25 23 nan 25 26 24 20 21 23 21 nan nan nan nan nan nan nan nan nan nan nan nan
28 26 29 29 30 34 35 34 35 32 32 29 26 23 23 24 25 24 25 26 27 25 nan nan 25 nan nan 24 24 nan nan nan nan nan nan nan nan nan nan nan nan nan nan
27 25 24 23 25 26 29 30 31 30 30 30 25 22 20 22 24 25 23 25 26 nan nan nan 25 nan nan nan nan nan nan nan nan nan nan nan nan nan nan nan nan nan nan
28 27 23 20 22 28 28 29 29 29 29 28 25 20 21 21 23 27 26 24 26 nan nan nan nan nan nan nan nan nan nan nan nan nan nan nan nan nan nan nan nan nan nan
27 26 23 20 18 21 27 29 29 30 30 29 27 25 24 19 21 26 24 24 25 nan nan nan nan nan nan nan nan nan nan nan nan nan nan nan nan nan nan nan nan nan nan
24 25 26 23 21 19 19 25 26 25 26 26 24 23 22 23 21 21 25 26 nan nan nan nan nan nan nan nan nan nan nan nan nan nan nan nan nan nan nan nan nan nan nan
20 23 25 26 26 21 20 20 19 19 21 23 23 22 24 23 23 23 22 25 nan nan nan nan nan nan nan nan nan nan nan nan nan nan nan nan nan nan nan nan nan nan nan
16 20 25 27 27 26 26 23 22 18 20 22 23 25 26 25 29 24 26 25 nan nan nan nan nan nan nan nan nan nan nan nan nan nan nan nan nan nan nan nan nan nan nan
16 21 22 26 26 27 27 25 23 21 22 25 27 26 31 25 30 nan 28 29 nan nan nan nan nan nan nan nan nan nan nan nan nan nan nan nan nan nan nan nan nan nan nan
19 23 28 32 28 28 25 29 28 27 26 27 29 32 28 31 37 30 34 33 nan nan nan nan nan nan nan nan nan nan nan nan nan nan nan nan nan nan nan nan nan nan nan
9 16 22 26 32 35 33 29 32 35 36 34 33 33 31 33 40 38 38 40 nan nan nan nan nan nan nan nan nan nan nan nan nan nan nan nan nan nan nan nan nan nan nan
15 8 15 23 27 29 28 31 29 33 39 42 43 42 40 38 38 44 47 44 nan nan nan nan nan nan nan nan nan nan nan nan nan nan nan nan nan nan nan nan nan nan nan
nan 12 15 19 22 27 30 28 26 29 32 38 39 41 46 45 45 48 52 41 nan nan nan nan nan nan nan nan nan nan nan nan nan nan nan nan nan nan nan nan nan nan nan
34 32 22 21 19 23 30 34 32 33 31 38 39 38 36 43 51 51 56 56 56 nan nan nan nan nan nan nan nan nan nan nan nan nan nan nan nan nan nan nan nan nan nan
nan 38 36 36 26 29 33 33 37 39 40 37 37 39 40 43 47 51 51 58 60 55 nan nan nan nan nan nan nan nan nan nan nan nan nan nan nan nan nan nan nan nan nan
nan nan nan nan 38 35 36 36 42 46 46 40 40 43 46 45 46 48 52 56 61 62 61 nan nan nan nan nan nan nan nan nan nan nan nan nan nan nan nan nan nan nan nan
nan nan nan nan nan 46 46 45 46 44 49 53 50 51 48 44 50 50 51 59 62 66 62 nan nan nan nan nan nan nan nan nan nan nan nan nan nan nan nan nan nan nan nan
nan nan nan nan nan nan nan nan 49 51 53 55 57 59 61 55 48 53 55 52 54 64 69 64 nan nan nan nan nan nan nan nan nan nan nan nan nan nan nan nan nan nan nan
nan nan nan nan nan nan nan nan nan nan 69 69 63 59 63 65 61 60 56 58 54 53 61 69 64 64 nan nan nan nan nan nan nan nan nan nan nan nan nan nan nan nan nan
nan nan nan nan nan nan nan nan nan nan nan nan 82 79 82 nan 69 54 68 58 60 55 63 65 65 67 nan nan nan nan nan nan nan nan nan nan nan nan nan nan nan nan nan
Wind_Direction
nan 341 347 344 343 341 344 339 329 323 315 318 323 330 337 341 335 319 308 305 303 300 299 295 294 290 291 290 284 281 276 273 264 248 230 222 218 222 217 246 222 239 229
nan 330 340 339 336 335 342 338 327 327 319 318 321 326 335 339 336 329 314 307 306 304 298 295 292 290 293 293 288 284 280 271 256 231 225 229 221 228 245 251 231 249 241
311 328 332 329 327 330 332 332 328 325 324 319 319 325 333 335 338 329 322 314 310 305 300 295 291 290 292 294 289 287 280 266 nan nan nan nan nan nan 248 268 264 257 262
313 322 325 325 322 323 329 329 323 324 326 322 321 326 332 334 335 334 327 320 314 310 300 295 291 292 293 294 288 282 273 261 nan nan nan nan nan nan 265 266 267 268 266
317 319 318 316 315 317 320 320 319 323 323 324 324 327 329 333 334 335 331 322 313 311 306 300 297 296 294 297 284 273 273 268 nan nan nan nan nan nan nan nan nan 258 255
315 322 318 317 313 310 311 316 315 317 317 321 328 330 330 333 335 334 334 325 316 310 306 302 nan 300 295 287 274 275 276 nan nan nan nan nan nan nan nan nan nan nan nan
315 319 331 330 321 316 312 313 309 307 311 316 323 329 334 332 333 335 331 327 315 311 309 nan 295 296 294 285 278 280 276 nan nan nan nan nan nan nan nan nan nan nan nan
325 313 322 325 319 316 313 309 305 304 305 310 314 323 331 331 324 326 322 319 315 312 nan nan 298 nan nan 287 278 nan nan nan nan nan nan nan nan nan nan nan nan nan nan
308 315 313 312 313 308 310 309 305 300 299 301 304 310 322 315 314 313 314 314 321 nan nan nan 294 nan nan nan nan nan nan nan nan nan nan nan nan nan nan nan nan nan nan
301 304 311 318 327 326 320 309 305 298 295 297 300 302 312 312 315 313 310 319 319 nan nan nan nan nan nan nan nan nan nan nan nan nan nan nan nan nan nan nan nan nan nan
293 302 308 309 319 326 318 313 310 306 302 301 301 300 304 301 318 319 313 311 313 nan nan nan nan nan nan nan nan nan nan nan nan nan nan nan nan nan nan nan nan nan nan
293 296 299 302 301 306 309 310 309 305 305 300 296 295 293 299 308 311 312 303 nan nan nan nan nan nan nan nan nan nan nan nan nan nan nan nan nan nan nan nan nan nan nan
293 293 300 296 293 297 294 292 291 286 291 291 291 286 289 289 290 294 295 301 nan nan nan nan nan nan nan nan nan nan nan nan nan nan nan nan nan nan nan nan nan nan nan
296 302 301 303 297 288 282 281 281 282 283 282 284 296 285 283 279 279 288 294 nan nan nan nan nan nan nan nan nan nan nan nan nan nan nan nan nan nan nan nan nan nan nan
310 298 298 299 297 295 283 282 281 278 274 278 275 279 282 277 290 nan 282 287 nan nan nan nan nan nan nan nan nan nan nan nan nan nan nan nan nan nan nan nan nan nan nan
314 316 312 315 303 297 288 280 274 274 275 267 268 277 289 282 273 271 280 275 nan nan nan nan nan nan nan nan nan nan nan nan nan nan nan nan nan nan nan nan nan nan nan
302 315 319 317 316 312 310 300 285 282 278 277 276 278 278 280 285 281 269 268 nan nan nan nan nan nan nan nan nan nan nan nan nan nan nan nan nan nan nan nan nan nan nan
227 302 315 307 315 316 313 304 294 291 284 283 279 279 292 288 282 277 277 278 nan nan nan nan nan nan nan nan nan nan nan nan nan nan nan nan nan nan nan nan nan nan nan
nan 252 276 290 301 305 304 300 296 295 296 294 287 287 292 290 287 277 282 278 nan nan nan nan nan nan nan nan nan nan nan nan nan nan nan nan nan nan nan nan nan nan nan
246 245 248 271 286 291 291 290 287 282 282 284 289 290 294 294 297 286 281 280 274 nan nan nan nan nan nan nan nan nan nan nan nan nan nan nan nan nan nan nan nan nan nan
nan 246 240 248 255 280 282 286 294 296 287 284 283 289 293 294 298 297 289 286 283 280 nan nan nan nan nan nan nan nan nan nan nan nan nan nan nan nan nan nan nan nan nan
nan nan nan nan 253 279 284 282 290 293 300 298 291 294 296 298 297 290 291 288 288 281 281 nan nan nan nan nan nan nan nan nan nan nan nan nan nan nan nan nan nan nan nan
nan nan nan nan nan 269 270 282 284 287 289 292 293 290 287 291 295 294 292 291 291 287 285 nan nan nan nan nan nan nan nan nan nan nan nan nan nan nan nan nan nan nan nan
nan nan nan nan nan nan nan nan 273 279 283 286 293 295 296 291 287 291 288 280 282 286 288 289 nan nan nan nan nan nan nan nan nan nan nan nan nan nan nan nan nan nan nan
nan nan nan nan nan nan nan nan nan nan 268 271 273 279 289 290 287 283 279 282 279 271 281 287 290 290 nan nan nan nan nan nan nan nan nan nan nan nan nan nan nan nan nan
nan nan nan nan nan nan nan nan nan nan nan nan 271 270 272 nan 267 274 270 269 271 268 277 279 289 291 nan nan nan nan nan nan nan nan nan nan nan nan nan nan nan nan nan